Time,TemperatureF,DewpointF,PressureIn,WindDirection,WindDirectionDegrees,WindSpeedMPH,WindSpeedGustMPH,Humidity,HourlyPrecipIn,Conditions,Clouds,dailyrainin,SolarRadiationWatts/m^2,SoftwareType,DateUTC
2014-01-04 00:00:00,-5.6,-8.8,-100.00,SSE,160,-888.7,-888.7,85,0.00,,,-99.99,1.0,HOBO +U30 +Weather +,2014-01-04 05:00:00,
2014-01-04 00:05:00,-5.2,-8.4,-100.00,South,184,-888.7,-888.7,85,0.00,,,-99.99,1.0,HOBO +U30 +Weather +,2014-01-04 05:05:00,
2014-01-04 00:10:00,-4.9,-8.1,-100.00,SSW,195,-888.7,-888.7,86,0.00,,,-99.99,1.0,HOBO +U30 +Weather +,2014-01-04 05:10:00,
2014-01-04 00:15:00,-5.1,-8.3,-100.00,SSW,195,-888.7,-888.7,85,0.00,,,-99.99,1.0,HOBO +U30 +Weather +,2014-01-04 05:15:00,
2014-01-04 00:20:00,-5.2,-8.5,-100.00,SSW,212,-888.7,-888.7,85,0.00,,,-99.99,1.0,HOBO +U30 +Weather +,2014-01-04 05:20:00,
2014-01-04 00:25:00,-5.0,-8.4,-100.00,SW,219,-888.7,-888.7,84,0.00,,,-99.99,1.0,HOBO +U30 +Weather +,2014-01-04 05:25:00,
2014-01-04 00:30:00,-4.8,-8.2,-100.00,SW,219,-888.7,-888.7,84,0.00,,,-99.99,1.0,HOBO +U30 +Weather +,2014-01-04 05:30:00,
2014-01-04 00:35:00,-5.1,-8.6,-100.00,SW,219,-888.7,-888.7,84,0.00,,,-99.99,1.0,HOBO +U30 +Weather +,2014-01-04 05:35:00,
2014-01-04 00:40:00,-5.8,-9.4,-100.00,SW,219,-888.7,-888.7,84,0.00,,,-99.99,1.0,HOBO +U30 +Weather +,2014-01-04 05:40:00,
2014-01-04 00:45:00,-5.9,-9.5,-100.00,SW,219,-888.7,-888.7,84,0.00,,,-99.99,1.0,HOBO +U30 +Weather +,2014-01-04 05:45:00,
2014-01-04 00:50:00,-5.8,-9.1,-100.00,SW,219,-888.7,-888.7,85,0.00,,,-99.99,1.0,HOBO +U30 +Weather +,2014-01-04 05:50:00,
2014-01-04 00:55:00,-5.4,-8.6,-100.00,SW,223,-888.7,-888.7,85,0.00,,,-99.99,1.0,HOBO +U30 +Weather +,2014-01-04 05:55:00,
2014-01-04 01:00:00,-5.3,-8.6,-100.00,SW,227,-888.7,-888.7,85,0.00,,,-99.99,1.0,HOBO +U30 +Weather +,2014-01-04 06:00:00,
2014-01-04 01:05:00,-5.0,-8.2,-100.00,SW,225,-888.7,-888.7,86,0.00,,,-99.99,1.0,HOBO +U30 +Weather +,2014-01-04 06:05:00,
2014-01-04 01:10:00,-4.8,-8.1,-100.00,NNE,32,-888.7,-888.7,85,0.00,,,-99.99,1.0,HOBO +U30 +Weather +,2014-01-04 06:10:00,
2014-01-04 01:15:00,-5.0,-8.4,-100.00,NNE,14,-888.7,-888.7,85,0.00,,,-99.99,1.0,HOBO +U30 +Weather +,2014-01-04 06:15:00,
2014-01-04 01:20:00,-4.6,-8.0,-100.00,North,10,-888.7,-888.7,85,0.00,,,-99.99,1.0,HOBO +U30 +Weather +,2014-01-04 06:20:00,
2014-01-04 01:25:00,-4.4,-7.9,-100.00,North,355,-888.7,-888.7,84,0.00,,,-99.99,1.0,HOBO +U30 +Weather +,2014-01-04 06:25:00,
2014-01-04 01:30:00,-4.8,-8.5,-100.00,North,355,-888.7,-888.7,83,0.00,,,-99.99,1.0,HOBO +U30 +Weather +,2014-01-04 06:30:00,
2014-01-04 01:35:00,-5.1,-8.6,-100.00,North,355,-888.7,-888.7,84,0.00,,,-99.99,1.0,HOBO +U30 +Weather +,2014-01-04 06:35:00,
2014-01-04 01:40:00,-4.8,-8.3,-100.00,North,355,-888.7,-888.7,84,0.00,,,-99.99,1.0,HOBO +U30 +Weather +,2014-01-04 06:40:00,
2014-01-04 01:45:00,-6.3,-9.9,-100.00,SE,125,-888.7,-888.7,83,0.00,,,-99.99,1.0,HOBO +U30 +Weather +,2014-01-04 06:45:00,
2014-01-04 01:50:00,-6.5,-10.0,-100.00,SSE,152,-888.7,-888.7,84,0.00,,,-99.99,1.0,HOBO +U30 +Weather +,2014-01-04 06:50:00,
2014-01-04 01:55:00,-6.6,-10.0,-100.00,SSE,156,-888.7,-888.7,84,0.00,,,-99.99,1.0,HOBO +U30 +Weather +,2014-01-04 06:55:00,
2014-01-04 02:00:00,-6.5,-9.8,-100.00,South,178,-888.7,-888.7,85,0.00,,,-99.99,1.0,HOBO +U30 +Weather +,2014-01-04 07:00:00,
2014-01-04 02:05:00,-7.0,-10.4,-100.00,South,178,-888.7,-888.7,84,0.00,,,-99.99,1.0,HOBO +U30 +Weather +,2014-01-04 07:05:00,
2014-01-04 02:10:00,-7.1,-10.4,-100.00,South,178,-888.7,-888.7,85,0.00,,,-99.99,1.0,HOBO +U30 +Weather +,2014-01-04 07:10:00,
2014-01-04 02:15:00,-7.0,-10.2,-100.00,South,178,-888.7,-888.7,85,0.00,,,-99.99,1.0,HOBO +U30 +Weather +,2014-01-04 07:15:00,
2014-01-04 02:20:00,-7.1,-10.3,-100.00,South,178,-888.7,-888.7,85,0.00,,,-99.99,1.0,HOBO +U30 +Weather +,2014-01-04 07:20:00,
2014-01-04 02:25:00,-6.9,-10.0,-100.00,South,178,-888.7,-888.7,86,0.00,,,-99.99,1.0,HOBO +U30 +Weather +,2014-01-04 07:25:00,
2014-01-04 02:30:00,-7.1,-10.3,-100.00,South,178,-888.7,-888.7,85,0.00,,,-99.99,1.0,HOBO +U30 +Weather +,2014-01-04 07:30:00,
2014-01-04 02:35:00,-7.0,-10.2,-100.00,South,178,-888.7,-888.7,85,0.00,,,-99.99,1.0,HOBO +U30 +Weather +,2014-01-04 07:35:00,
2014-01-04 02:40:00,-7.2,-10.4,-100.00,South,178,-888.7,-888.7,85,0.00,,,-99.99,1.0,HOBO +U30 +Weather +,2014-01-04 07:40:00,
2014-01-04 02:45:00,-7.3,-10.6,-100.00,South,178,-888.7,-888.7,85,0.00,,,-99.99,1.0,HOBO +U30 +Weather +,2014-01-04 07:45:00,
2014-01-04 02:50:00,-7.2,-10.4,-100.00,South,178,-888.7,-888.7,85,0.00,,,-99.99,1.0,HOBO +U30 +Weather +,2014-01-04 07:50:00,
2014-01-04 02:55:00,-6.9,-10.1,-100.00,South,178,-888.7,-888.7,85,0.00,,,-99.99,1.0,HOBO +U30 +Weather +,2014-01-04 07:55:00,
2014-01-04 03:00:00,-7.5,-10.8,-100.00,South,178,-888.7,-888.7,85,0.00,,,-99.99,1.0,HOBO +U30 +Weather +,2014-01-04 08:00:00,
2014-01-04 03:05:00,-7.5,-10.8,-100.00,South,178,-888.7,-888.7,85,0.00,,,-99.99,1.0,HOBO +U30 +Weather +,2014-01-04 08:05:00,
2014-01-04 03:10:00,-7.0,-10.2,-100.00,South,178,-888.7,-888.7,85,0.00,,,-99.99,1.0,HOBO +U30 +Weather +,2014-01-04 08:10:00,
2014-01-04 03:15:00,-7.2,-10.5,-100.00,South,178,-888.7,-888.7,85,0.00,,,-99.99,1.0,HOBO +U30 +Weather +,2014-01-04 08:15:00,
2014-01-04 03:20:00,-7.8,-11.2,-100.00,South,181,-888.7,-888.7,84,0.00,,,-99.99,1.0,HOBO +U30 +Weather +,2014-01-04 08:20:00,
2014-01-04 03:25:00,-7.5,-10.8,-100.00,South,181,-888.7,-888.7,85,0.00,,,-99.99,1.0,HOBO +U30 +Weather +,2014-01-04 08:25:00,
2014-01-04 03:30:00,-7.4,-10.6,-100.00,South,181,-888.7,-888.7,85,0.00,,,-99.99,1.0,HOBO +U30 +Weather +,2014-01-04 08:30:00,
2014-01-04 03:35:00,-7.2,-10.4,-100.00,South,181,-888.7,-888.7,85,0.00,,,-99.99,1.0,HOBO +U30 +Weather +,2014-01-04 08:35:00,
2014-01-04 03:40:00,-7.1,-10.3,-100.00,South,181,-888.7,-888.7,85,0.00,,,-99.99,1.0,HOBO +U30 +Weather +,2014-01-04 08:40:00,
2014-01-04 03:45:00,-6.6,-9.8,-100.00,South,181,-888.7,-888.7,85,0.00,,,-99.99,1.0,HOBO +U30 +Weather +,2014-01-04 08:45:00,
2014-01-04 03:50:00,-6.1,-9.3,-100.00,South,181,-888.7,-888.7,85,0.00,,,-99.99,1.0,HOBO +U30 +Weather +,2014-01-04 08:50:00,
2014-01-04 03:55:00,-6.4,-9.7,-100.00,South,181,-888.7,-888.7,85,0.00,,,-99.99,1.0,HOBO +U30 +Weather +,2014-01-04 08:55:00,
2014-01-04 04:00:00,-6.1,-9.4,-100.00,South,181,-888.7,-888.7,85,0.00,,,-99.99,1.0,HOBO +U30 +Weather +,2014-01-04 09:00:00,
2014-01-04 04:05:00,-6.0,-9.4,-100.00,South,178,-888.7,-888.7,85,0.00,,,-99.99,1.0,HOBO +U30 +Weather +,2014-01-04 09:05:00,
2014-01-04 04:10:00,-6.4,-9.9,-100.00,South,173,-888.7,-888.7,84,0.00,,,-99.99,1.0,HOBO +U30 +Weather +,2014-01-04 09:10:00,
2014-01-04 04:15:00,-6.3,-9.6,-100.00,South,171,-888.7,-888.7,85,0.00,,,-99.99,1.0,HOBO +U30 +Weather +,2014-01-04 09:15:00,
2014-01-04 04:20:00,-5.9,-9.1,-100.00,South,171,-888.7,-888.7,85,0.00,,,-99.99,1.0,HOBO +U30 +Weather +,2014-01-04 09:20:00,
2014-01-04 04:25:00,-5.9,-9.2,-100.00,South,171,-888.7,-888.7,85,0.00,,,-99.99,1.0,HOBO +U30 +Weather +,2014-01-04 09:25:00,
2014-01-04 04:30:00,-6.1,-9.5,-100.00,South,171,-888.7,-888.7,85,0.00,,,-99.99,1.0,HOBO +U30 +Weather +,2014-01-04 09:30:00,
2014-01-04 04:35:00,-6.4,-9.8,-100.00,South,171,-888.7,-888.7,84,0.00,,,-99.99,1.0,HOBO +U30 +Weather +,2014-01-04 09:35:00,
2014-01-04 04:40:00,-6.8,-10.3,-100.00,South,171,-888.7,-888.7,84,0.00,,,-99.99,1.0,HOBO +U30 +Weather +,2014-01-04 09:40:00,
2014-01-04 04:45:00,-5.9,-9.1,-100.00,SSE,147,-888.7,-888.7,85,0.00,,,-99.99,1.0,HOBO +U30 +Weather +,2014-01-04 09:45:00,
2014-01-04 04:50:00,-5.2,-8.4,-100.00,NNW,345,-888.7,-888.7,85,0.00,,,-99.99,1.0,HOBO +U30 +Weather +,2014-01-04 09:50:00,
2014-01-04 04:55:00,-5.0,-8.7,-100.00,NW,321,-888.7,-888.7,83,0.00,,,-99.99,1.0,HOBO +U30 +Weather +,2014-01-04 09:55:00,
2014-01-04 05:00:00,-5.1,-8.8,-100.00,NNW,330,-888.7,-888.7,83,0.00,,,-99.99,1.0,HOBO +U30 +Weather +,2014-01-04 10:00:00,
2014-01-04 05:05:00,-5.1,-8.9,-100.00,NNW,334,-888.7,-888.7,83,0.00,,,-99.99,1.0,HOBO +U30 +Weather +,2014-01-04 10:05:00,
2014-01-04 05:10:00,-5.5,-9.3,-100.00,NW,316,-888.7,-888.7,83,0.00,,,-99.99,1.0,HOBO +U30 +Weather +,2014-01-04 10:10:00,
2014-01-04 05:15:00,-6.0,-9.8,-100.00,WSW,239,-888.7,-888.7,83,0.00,,,-99.99,1.0,HOBO +U30 +Weather +,2014-01-04 10:15:00,
2014-01-04 05:20:00,-6.2,-9.9,-100.00,WSW,240,-888.7,-888.7,83,0.00,,,-99.99,1.0,HOBO +U30 +Weather +,2014-01-04 10:20:00,
2014-01-04 05:25:00,-6.6,-10.3,-100.00,WSW,247,-888.7,-888.7,83,0.00,,,-99.99,1.0,HOBO +U30 +Weather +,2014-01-04 10:25:00,
2014-01-04 05:30:00,-7.5,-11.1,-100.00,WSW,250,-888.7,-888.7,83,0.00,,,-99.99,1.0,HOBO +U30 +Weather +,2014-01-04 10:30:00,
2014-01-04 05:35:00,-7.1,-10.6,-100.00,WSW,250,-888.7,-888.7,84,0.00,,,-99.99,1.0,HOBO +U30 +Weather +,2014-01-04 10:35:00,
2014-01-04 05:40:00,-7.5,-11.0,-100.00,WSW,250,-888.7,-888.7,84,0.00,,,-99.99,1.0,HOBO +U30 +Weather +,2014-01-04 10:40:00,
2014-01-04 05:45:00,-7.3,-10.8,-100.00,WSW,248,-888.7,-888.7,84,0.00,,,-99.99,1.0,HOBO +U30 +Weather +,2014-01-04 10:45:00,
2014-01-04 05:50:00,-7.0,-10.4,-100.00,WSW,248,-888.7,-888.7,84,0.00,,,-99.99,1.0,HOBO +U30 +Weather +,2014-01-04 10:50:00,
2014-01-04 05:55:00,-7.6,-11.2,-100.00,SW,229,-888.7,-888.7,84,0.00,,,-99.99,1.0,HOBO +U30 +Weather +,2014-01-04 10:55:00,
2014-01-04 06:00:00,-7.5,-10.8,-100.00,SW,226,-888.7,-888.7,85,0.00,,,-99.99,1.0,HOBO +U30 +Weather +,2014-01-04 11:00:00,
2014-01-04 06:05:00,-7.2,-10.6,-100.00,SW,226,-888.7,-888.7,85,0.00,,,-99.99,1.0,HOBO +U30 +Weather +,2014-01-04 11:05:00,
2014-01-04 06:10:00,-5.8,-9.2,-100.00,NW,314,-888.7,-888.7,84,0.00,,,-99.99,1.0,HOBO +U30 +Weather +,2014-01-04 11:10:00,
2014-01-04 06:15:00,-6.6,-10.3,-100.00,NW,309,-888.7,-888.7,83,0.00,,,-99.99,1.0,HOBO +U30 +Weather +,2014-01-04 11:15:00,
2014-01-04 06:20:00,-6.4,-9.9,-100.00,WNW,289,-888.7,-888.7,84,0.00,,,-99.99,1.0,HOBO +U30 +Weather +,2014-01-04 11:20:00,
2014-01-04 06:25:00,-7.1,-10.7,-100.00,South,181,-888.7,-888.7,84,0.00,,,-99.99,1.0,HOBO +U30 +Weather +,2014-01-04 11:25:00,
2014-01-04 06:30:00,-7.3,-10.7,-100.00,SSE,168,-888.7,-888.7,84,0.00,,,-99.99,1.0,HOBO +U30 +Weather +,2014-01-04 11:30:00,
2014-01-04 06:35:00,-7.1,-10.5,-100.00,SSE,168,-888.7,-888.7,84,0.00,,,-99.99,1.0,HOBO +U30 +Weather +,2014-01-04 11:35:00,
2014-01-04 06:40:00,-7.5,-10.9,-100.00,South,170,-888.7,-888.7,84,0.00,,,-99.99,1.0,HOBO +U30 +Weather +,2014-01-04 11:40:00,
2014-01-04 06:45:00,-7.0,-10.3,-100.00,South,170,-888.7,-888.7,85,0.00,,,-99.99,1.0,HOBO +U30 +Weather +,2014-01-04 11:45:00,
2014-01-04 06:50:00,-6.9,-10.3,-100.00,South,170,-888.7,-888.7,85,0.00,,,-99.99,1.0,HOBO +U30 +Weather +,2014-01-04 11:50:00,
2014-01-04 06:55:00,-7.3,-10.7,-100.00,South,170,-888.7,-888.7,84,0.00,,,-99.99,2.0,HOBO +U30 +Weather +,2014-01-04 11:55:00,
2014-01-04 07:00:00,-7.1,-10.5,-100.00,South,170,-888.7,-888.7,85,0.00,,,-99.99,3.0,HOBO +U30 +Weather +,2014-01-04 12:00:00,
2014-01-04 07:05:00,-6.6,-10.1,-100.00,South,174,-888.7,-888.7,84,0.00,,,-99.99,4.0,HOBO +U30 +Weather +,2014-01-04 12:05:00,
2014-01-04 07:10:00,-6.8,-10.4,-100.00,South,171,-888.7,-888.7,84,0.00,,,-99.99,7.0,HOBO +U30 +Weather +,2014-01-04 12:10:00,
2014-01-04 07:15:00,-6.6,-10.2,-100.00,SSE,164,-888.7,-888.7,84,0.00,,,-99.99,13.0,HOBO +U30 +Weather +,2014-01-04 12:15:00,
2014-01-04 07:20:00,-5.5,-8.9,-100.00,SSW,192,-888.7,-888.7,84,0.00,,,-99.99,18.0,HOBO +U30 +Weather +,2014-01-04 12:20:00,
2014-01-04 07:25:00,-4.9,-8.5,-100.00,NW,320,-888.7,-888.7,84,0.00,,,-99.99,33.0,HOBO +U30 +Weather +,2014-01-04 12:25:00,
2014-01-04 07:30:00,-4.6,-8.4,-100.00,NNW,331,-888.7,-888.7,83,0.00,,,-99.99,67.0,HOBO +U30 +Weather +,2014-01-04 12:30:00,
2014-01-04 07:35:00,-4.0,-8.1,-100.00,NW,312,-888.7,-888.7,82,0.00,,,-99.99,88.0,HOBO +U30 +Weather +,2014-01-04 12:35:00,
2014-01-04 07:40:00,-4.2,-8.5,-100.00,NW,317,-888.7,-888.7,81,0.00,,,-99.99,41.0,HOBO +U30 +Weather +,2014-01-04 12:40:00,
2014-01-04 07:45:00,-4.4,-8.6,-100.00,NW,319,-888.7,-888.7,81,0.00,,,-99.99,37.0,HOBO +U30 +Weather +,2014-01-04 12:45:00,
2014-01-04 07:50:00,-4.1,-8.4,-100.00,NW,323,-888.7,-888.7,81,0.00,,,-99.99,42.0,HOBO +U30 +Weather +,2014-01-04 12:50:00,
2014-01-04 07:55:00,-3.6,-7.9,-100.00,NW,321,-888.7,-888.7,81,0.00,,,-99.99,46.0,HOBO +U30 +Weather +,2014-01-04 12:55:00,
2014-01-04 08:00:00,-3.5,-7.8,-100.00,NW,321,-888.7,-888.7,81,0.00,,,-99.99,38.0,HOBO +U30 +Weather +,2014-01-04 13:00:00,
2014-01-04 08:05:00,-3.4,-7.8,-100.00,NW,321,-888.7,-888.7,81,0.00,,,-99.99,39.0,HOBO +U30 +Weather +,2014-01-04 13:05:00,
2014-01-04 08:10:00,-3.3,-7.7,-100.00,NW,321,-888.7,-888.7,81,0.00,,,-99.99,38.0,HOBO +U30 +Weather +,2014-01-04 13:10:00,
2014-01-04 08:15:00,-3.3,-7.6,-100.00,WNW,296,-888.7,-888.7,81,0.00,,,-99.99,53.0,HOBO +U30 +Weather +,2014-01-04 13:15:00,
2014-01-04 08:20:00,-3.8,-8.1,-100.00,South,181,-888.7,-888.7,81,0.00,,,-99.99,81.0,HOBO +U30 +Weather +,2014-01-04 13:20:00,
2014-01-04 08:25:00,-0.1,-4.3,-100.00,South,174,-888.7,-888.7,81,0.00,,,-99.99,211.0,HOBO +U30 +Weather +,2014-01-04 13:25:00,
2014-01-04 08:30:00,1.4,-4.0,-100.00,South,174,-888.7,-888.7,77,0.00,,,-99.99,212.0,HOBO +U30 +Weather +,2014-01-04 13:30:00,
2014-01-04 08:35:00,0.5,-5.0,-100.00,South,183,-888.7,-888.7,77,0.00,,,-99.99,221.0,HOBO +U30 +Weather +,2014-01-04 13:35:00,
2014-01-04 08:40:00,0.9,-4.5,-100.00,WSW,241,-888.7,-888.7,77,0.00,,,-99.99,231.0,HOBO +U30 +Weather +,2014-01-04 13:40:00,
2014-01-04 08:45:00,1.5,-4.0,-100.00,West,264,-888.7,-888.7,77,0.00,,,-99.99,239.0,HOBO +U30 +Weather +,2014-01-04 13:45:00,
2014-01-04 08:50:00,2.5,-2.9,-100.00,West,268,-888.7,-888.7,77,0.00,,,-99.99,251.0,HOBO +U30 +Weather +,2014-01-04 13:50:00,
2014-01-04 08:55:00,3.0,-2.7,-100.00,West,268,-888.7,-888.7,76,0.00,,,-99.99,273.0,HOBO +U30 +Weather +,2014-01-04 13:55:00,
2014-01-04 09:00:00,2.6,-3.4,-100.00,West,281,-888.7,-888.7,75,0.00,,,-99.99,284.0,HOBO +U30 +Weather +,2014-01-04 14:00:00,
2014-01-04 09:05:00,3.1,-2.5,-100.00,WNW,298,-888.7,-888.7,77,0.00,,,-99.99,207.0,HOBO +U30 +Weather +,2014-01-04 14:05:00,
2014-01-04 09:10:00,4.5,-1.5,-100.00,NW,307,-888.7,-888.7,75,0.00,,,-99.99,292.0,HOBO +U30 +Weather +,2014-01-04 14:10:00,
2014-01-04 09:15:00,5.2,-1.4,-100.00,East,83,-888.7,-888.7,73,0.00,,,-99.99,302.0,HOBO +U30 +Weather +,2014-01-04 14:15:00,
2014-01-04 09:20:00,5.7,-0.7,-100.00,NE,55,-888.7,-888.7,74,0.00,,,-99.99,312.0,HOBO +U30 +Weather +,2014-01-04 14:20:00,
2014-01-04 09:25:00,6.0,-1.2,-100.00,ESE,112,-888.7,-888.7,71,0.00,,,-99.99,319.0,HOBO +U30 +Weather +,2014-01-04 14:25:00,
2014-01-04 09:30:00,5.0,-2.3,-100.00,SE,133,-888.7,-888.7,71,0.00,,,-99.99,327.0,HOBO +U30 +Weather +,2014-01-04 14:30:00,
2014-01-04 09:35:00,6.2,-1.1,-100.00,SE,140,-888.7,-888.7,71,0.00,,,-99.99,337.0,HOBO +U30 +Weather +,2014-01-04 14:35:00,
2014-01-04 09:40:00,7.3,-0.1,-100.00,ENE,60,-888.7,-888.7,71,0.00,,,-99.99,344.0,HOBO +U30 +Weather +,2014-01-04 14:40:00,
2014-01-04 09:45:00,6.1,-1.4,-100.00,North,352,-888.7,-888.7,70,0.00,,,-99.99,352.0,HOBO +U30 +Weather +,2014-01-04 14:45:00,
2014-01-04 09:50:00,7.3,0.1,-100.00,East,97,-888.7,-888.7,71,0.00,,,-99.99,359.0,HOBO +U30 +Weather +,2014-01-04 14:50:00,
2014-01-04 09:55:00,7.1,-1.2,-100.00,ESE,110,-888.7,-888.7,68,0.00,,,-99.99,367.0,HOBO +U30 +Weather +,2014-01-04 14:55:00,
2014-01-04 10:00:00,6.4,-1.6,-100.00,ESE,110,-888.7,-888.7,68,0.00,,,-99.99,376.0,HOBO +U30 +Weather +,2014-01-04 15:00:00,
2014-01-04 10:05:00,8.6,0.3,-100.00,ENE,69,-888.7,-888.7,68,0.00,,,-99.99,381.0,HOBO +U30 +Weather +,2014-01-04 15:05:00,
2014-01-04 10:10:00,9.4,0.9,-100.00,NNE,22,-888.7,-888.7,67,0.00,,,-99.99,387.0,HOBO +U30 +Weather +,2014-01-04 15:10:00,
2014-01-04 10:15:00,10.2,1.5,-100.00,North,10,-888.7,-888.7,67,0.00,,,-99.99,393.0,HOBO +U30 +Weather +,2014-01-04 15:15:00,
2014-01-04 10:20:00,9.8,0.8,-100.00,NE,41,-888.7,-888.7,66,0.00,,,-99.99,399.0,HOBO +U30 +Weather +,2014-01-04 15:20:00,
2014-01-04 10:25:00,10.4,0.8,-100.00,East,95,-888.7,-888.7,64,0.00,,,-99.99,403.0,HOBO +U30 +Weather +,2014-01-04 15:25:00,
2014-01-04 10:30:00,11.3,1.3,-100.00,ESE,108,-888.7,-888.7,63,0.00,,,-99.99,411.0,HOBO +U30 +Weather +,2014-01-04 15:30:00,
2014-01-04 10:35:00,9.8,-0.8,-100.00,ESE,117,-888.7,-888.7,61,0.00,,,-99.99,416.0,HOBO +U30 +Weather +,2014-01-04 15:35:00,
2014-01-04 10:40:00,10.5,-0.2,-100.00,SE,124,-888.7,-888.7,61,0.00,,,-99.99,421.0,HOBO +U30 +Weather +,2014-01-04 15:40:00,
2014-01-04 10:45:00,12.5,1.5,-100.00,ESE,112,-888.7,-888.7,60,0.00,,,-99.99,424.0,HOBO +U30 +Weather +,2014-01-04 15:45:00,
2014-01-04 10:50:00,12.6,1.1,-100.00,SE,124,-888.7,-888.7,59,0.00,,,-99.99,427.0,HOBO +U30 +Weather +,2014-01-04 15:50:00,
2014-01-04 10:55:00,13.5,1.4,-100.00,SE,125,-888.7,-888.7,57,0.00,,,-99.99,434.0,HOBO +U30 +Weather +,2014-01-04 15:55:00,
2014-01-04 11:00:00,14.3,2.1,-100.00,ESE,118,-888.7,-888.7,57,0.00,,,-99.99,438.0,HOBO +U30 +Weather +,2014-01-04 16:00:00,
2014-01-04 11:05:00,16.1,3.4,-100.00,ENE,77,-888.7,-888.7,56,0.00,,,-99.99,437.0,HOBO +U30 +Weather +,2014-01-04 16:05:00,
2014-01-04 11:10:00,15.7,3.0,-100.00,ESE,104,-888.7,-888.7,56,0.00,,,-99.99,439.0,HOBO +U30 +Weather +,2014-01-04 16:10:00,
2014-01-04 11:15:00,15.6,2.6,-100.00,East,98,-888.7,-888.7,55,0.00,,,-99.99,442.0,HOBO +U30 +Weather +,2014-01-04 16:15:00,
2014-01-04 11:20:00,14.8,1.9,-100.00,East,86,-888.7,-888.7,56,0.00,,,-99.99,443.0,HOBO +U30 +Weather +,2014-01-04 16:20:00,
2014-01-04 11:25:00,16.4,3.3,-100.00,ESE,102,-888.7,-888.7,55,0.00,,,-99.99,446.0,HOBO +U30 +Weather +,2014-01-04 16:25:00,
2014-01-04 11:30:00,16.7,2.7,-100.00,ESE,111,-888.7,-888.7,53,0.00,,,-99.99,447.0,HOBO +U30 +Weather +,2014-01-04 16:30:00,
2014-01-04 11:35:00,18.4,3.8,-100.00,SE,128,-888.7,-888.7,52,0.00,,,-99.99,448.0,HOBO +U30 +Weather +,2014-01-04 16:35:00,
2014-01-04 11:40:00,18.4,2.6,-100.00,South,174,-888.7,-888.7,49,0.00,,,-99.99,449.0,HOBO +U30 +Weather +,2014-01-04 16:40:00,
2014-01-04 11:45:00,18.0,1.8,-100.00,SSE,159,-888.7,-888.7,48,0.00,,,-99.99,447.0,HOBO +U30 +Weather +,2014-01-04 16:45:00,
2014-01-04 11:50:00,17.5,2.0,-100.00,SE,135,-888.7,-888.7,50,0.00,,,-99.99,447.0,HOBO +U30 +Weather +,2014-01-04 16:50:00,
2014-01-04 11:55:00,17.5,1.8,-100.00,SSE,150,-888.7,-888.7,49,0.00,,,-99.99,446.0,HOBO +U30 +Weather +,2014-01-04 16:55:00,
2014-01-04 12:00:00,17.6,1.6,-100.00,SSE,149,-888.7,-888.7,48,0.00,,,-99.99,442.0,HOBO +U30 +Weather +,2014-01-04 17:00:00,
2014-01-04 12:05:00,18.8,2.8,-100.00,SE,138,-888.7,-888.7,49,0.00,,,-99.99,436.0,HOBO +U30 +Weather +,2014-01-04 17:05:00,
2014-01-04 12:10:00,19.0,2.8,-100.00,SE,136,-888.7,-888.7,48,0.00,,,-99.99,439.0,HOBO +U30 +Weather +,2014-01-04 17:10:00,
2014-01-04 12:15:00,19.6,2.9,-100.00,SE,139,-888.7,-888.7,47,0.00,,,-99.99,438.0,HOBO +U30 +Weather +,2014-01-04 17:15:00,
2014-01-04 12:20:00,19.3,2.3,-100.00,SE,129,-888.7,-888.7,46,0.00,,,-99.99,434.0,HOBO +U30 +Weather +,2014-01-04 17:20:00,
2014-01-04 12:25:00,19.2,2.3,-100.00,SE,131,-888.7,-888.7,46,0.00,,,-99.99,403.0,HOBO +U30 +Weather +,2014-01-04 17:25:00,
2014-01-04 12:30:00,19.9,2.9,-100.00,SE,135,-888.7,-888.7,46,0.00,,,-99.99,428.0,HOBO +U30 +Weather +,2014-01-04 17:30:00,
2014-01-04 12:35:00,20.6,3.4,-100.00,SE,126,-888.7,-888.7,46,0.00,,,-99.99,417.0,HOBO +U30 +Weather +,2014-01-04 17:35:00,
2014-01-04 12:40:00,20.9,3.4,-100.00,SE,128,-888.7,-888.7,45,0.00,,,-99.99,418.0,HOBO +U30 +Weather +,2014-01-04 17:40:00,
2014-01-04 12:45:00,22.8,5.0,-100.00,ESE,111,-888.7,-888.7,45,0.00,,,-99.99,413.0,HOBO +U30 +Weather +,2014-01-04 17:45:00,
2014-01-04 12:50:00,23.1,5.3,-100.00,East,93,-888.7,-888.7,45,0.00,,,-99.99,408.0,HOBO +U30 +Weather +,2014-01-04 17:50:00,
2014-01-04 12:55:00,25.0,5.9,-100.00,South,181,-888.7,-888.7,43,0.00,,,-99.99,403.0,HOBO +U30 +Weather +,2014-01-04 17:55:00,
2014-01-04 13:00:00,26.0,4.9,-100.00,South,191,-888.7,-888.7,39,0.00,,,-99.99,398.0,HOBO +U30 +Weather +,2014-01-04 18:00:00,
2014-01-04 13:05:00,25.4,4.1,-100.00,South,178,-888.7,-888.7,39,0.00,,,-99.99,391.0,HOBO +U30 +Weather +,2014-01-04 18:05:00,
2014-01-04 13:10:00,25.8,4.4,-100.00,South,181,-888.7,-888.7,39,0.00,,,-99.99,384.0,HOBO +U30 +Weather +,2014-01-04 18:10:00,
2014-01-04 13:15:00,25.2,3.2,-100.00,South,177,-888.7,-888.7,37,0.00,,,-99.99,378.0,HOBO +U30 +Weather +,2014-01-04 18:15:00,
2014-01-04 13:20:00,24.9,2.8,-100.00,South,183,-888.7,-888.7,37,0.00,,,-99.99,371.0,HOBO +U30 +Weather +,2014-01-04 18:20:00,
2014-01-04 13:25:00,25.1,3.0,-100.00,SSE,168,-888.7,-888.7,37,0.00,,,-99.99,362.0,HOBO +U30 +Weather +,2014-01-04 18:25:00,
2014-01-04 13:30:00,24.7,2.3,-100.00,SSE,164,-888.7,-888.7,37,0.00,,,-99.99,354.0,HOBO +U30 +Weather +,2014-01-04 18:30:00,
2014-01-04 13:35:00,25.2,2.7,-100.00,South,188,-888.7,-888.7,37,0.00,,,-99.99,346.0,HOBO +U30 +Weather +,2014-01-04 18:35:00,
2014-01-04 13:40:00,25.9,3.2,-100.00,South,180,-888.7,-888.7,36,0.00,,,-99.99,337.0,HOBO +U30 +Weather +,2014-01-04 18:40:00,
2014-01-04 13:45:00,25.5,2.6,-100.00,South,180,-888.7,-888.7,36,0.00,,,-99.99,328.0,HOBO +U30 +Weather +,2014-01-04 18:45:00,
2014-01-04 13:50:00,26.4,3.7,-100.00,South,173,-888.7,-888.7,37,0.00,,,-99.99,319.0,HOBO +U30 +Weather +,2014-01-04 18:50:00,
2014-01-04 13:55:00,26.3,3.5,-100.00,South,174,-888.7,-888.7,36,0.00,,,-99.99,311.0,HOBO +U30 +Weather +,2014-01-04 18:55:00,
2014-01-04 14:00:00,25.9,2.9,-100.00,South,175,-888.7,-888.7,36,0.00,,,-99.99,301.0,HOBO +U30 +Weather +,2014-01-04 19:00:00,
2014-01-04 14:05:00,26.3,3.5,-100.00,South,173,-888.7,-888.7,36,0.00,,,-99.99,291.0,HOBO +U30 +Weather +,2014-01-04 19:05:00,
2014-01-04 14:10:00,26.5,3.8,-100.00,South,174,-888.7,-888.7,37,0.00,,,-99.99,281.0,HOBO +U30 +Weather +,2014-01-04 19:10:00,
2014-01-04 14:15:00,25.8,3.2,-100.00,SSE,166,-888.7,-888.7,37,0.00,,,-99.99,271.0,HOBO +U30 +Weather +,2014-01-04 19:15:00,
2014-01-04 14:20:00,26.4,4.2,-100.00,SSE,168,-888.7,-888.7,37,0.00,,,-99.99,259.0,HOBO +U30 +Weather +,2014-01-04 19:20:00,
2014-01-04 14:25:00,27.1,4.2,-100.00,South,180,-888.7,-888.7,36,0.00,,,-99.99,248.0,HOBO +U30 +Weather +,2014-01-04 19:25:00,
2014-01-04 14:30:00,26.7,4.6,-100.00,South,178,-888.7,-888.7,38,0.00,,,-99.99,237.0,HOBO +U30 +Weather +,2014-01-04 19:30:00,
2014-01-04 14:35:00,25.7,3.6,-100.00,SSW,194,-888.7,-888.7,37,0.00,,,-99.99,57.0,HOBO +U30 +Weather +,2014-01-04 19:35:00,
2014-01-04 14:40:00,25.1,3.0,-100.00,SSE,166,-888.7,-888.7,37,0.00,,,-99.99,93.0,HOBO +U30 +Weather +,2014-01-04 19:40:00,
2014-01-04 14:45:00,24.7,2.9,-100.00,SSE,163,-888.7,-888.7,38,0.00,,,-99.99,34.0,HOBO +U30 +Weather +,2014-01-04 19:45:00,
2014-01-04 14:50:00,24.8,3.5,-100.00,SE,146,-888.7,-888.7,39,0.00,,,-99.99,31.0,HOBO +U30 +Weather +,2014-01-04 19:50:00,
2014-01-04 14:55:00,24.7,3.0,-100.00,South,177,-888.7,-888.7,38,0.00,,,-99.99,32.0,HOBO +U30 +Weather +,2014-01-04 19:55:00,
2014-01-04 15:00:00,24.8,3.9,-100.00,South,184,-888.7,-888.7,40,0.00,,,-99.99,31.0,HOBO +U30 +Weather +,2014-01-04 20:00:00,
2014-01-04 15:05:00,24.8,3.9,-100.00,South,170,-888.7,-888.7,40,0.00,,,-99.99,26.0,HOBO +U30 +Weather +,2014-01-04 20:05:00,
2014-01-04 15:10:00,24.8,3.8,-100.00,South,171,-888.7,-888.7,39,0.00,,,-99.99,24.0,HOBO +U30 +Weather +,2014-01-04 20:10:00,
2014-01-04 15:15:00,24.9,4.0,-100.00,South,180,-888.7,-888.7,39,0.00,,,-99.99,24.0,HOBO +U30 +Weather +,2014-01-04 20:15:00,
2014-01-04 15:20:00,25.0,4.1,-100.00,SSE,157,-888.7,-888.7,40,0.00,,,-99.99,24.0,HOBO +U30 +Weather +,2014-01-04 20:20:00,
2014-01-04 15:25:00,25.0,3.8,-100.00,SSE,153,-888.7,-888.7,39,0.00,,,-99.99,23.0,HOBO +U30 +Weather +,2014-01-04 20:25:00,
2014-01-04 15:30:00,24.9,4.4,-100.00,SSE,159,-888.7,-888.7,40,0.00,,,-99.99,23.0,HOBO +U30 +Weather +,2014-01-04 20:30:00,
2014-01-04 15:35:00,24.8,4.4,-100.00,SSE,156,-888.7,-888.7,41,0.00,,,-99.99,22.0,HOBO +U30 +Weather +,2014-01-04 20:35:00,
2014-01-04 15:40:00,24.7,4.2,-100.00,SSE,159,-888.7,-888.7,40,0.00,,,-99.99,19.0,HOBO +U30 +Weather +,2014-01-04 20:40:00,
2014-01-04 15:45:00,24.5,4.6,-100.00,SSE,160,-888.7,-888.7,41,0.00,,,-99.99,18.0,HOBO +U30 +Weather +,2014-01-04 20:45:00,
2014-01-04 15:50:00,24.8,4.7,-100.00,SSE,167,-888.7,-888.7,41,0.00,,,-99.99,18.0,HOBO +U30 +Weather +,2014-01-04 20:50:00,
2014-01-04 15:55:00,24.8,4.3,-100.00,SSE,160,-888.7,-888.7,40,0.00,,,-99.99,14.0,HOBO +U30 +Weather +,2014-01-04 20:55:00,
2014-01-04 16:00:00,24.6,4.2,-100.00,SSE,161,-888.7,-888.7,40,0.00,,,-99.99,13.0,HOBO +U30 +Weather +,2014-01-04 21:00:00,
2014-01-04 16:05:00,24.4,4.3,-100.00,South,174,-888.7,-888.7,41,0.00,,,-99.99,12.0,HOBO +U30 +Weather +,2014-01-04 21:05:00,
2014-01-04 16:10:00,24.2,4.4,-100.00,South,178,-888.7,-888.7,42,0.00,,,-99.99,8.0,HOBO +U30 +Weather +,2014-01-04 21:10:00,
2014-01-04 16:15:00,23.9,4.6,-100.00,SSE,166,-888.7,-888.7,42,0.00,,,-99.99,4.0,HOBO +U30 +Weather +,2014-01-04 21:15:00,
2014-01-04 16:20:00,23.7,4.6,-100.00,South,174,-888.7,-888.7,43,0.00,,,-99.99,2.0,HOBO +U30 +Weather +,2014-01-04 21:20:00,
2014-01-04 16:25:00,23.6,4.6,-100.00,SSE,160,-888.7,-888.7,43,0.00,,,-99.99,1.0,HOBO +U30 +Weather +,2014-01-04 21:25:00,
2014-01-04 16:30:00,23.3,4.9,-100.00,SSE,166,-888.7,-888.7,44,0.00,,,-99.99,1.0,HOBO +U30 +Weather +,2014-01-04 21:30:00,
2014-01-04 16:35:00,23.1,4.9,-100.00,SSE,164,-888.7,-888.7,45,0.00,,,-99.99,1.0,HOBO +U30 +Weather +,2014-01-04 21:35:00,
2014-01-04 16:40:00,23.0,5.0,-100.00,SSE,167,-888.7,-888.7,45,0.00,,,-99.99,1.0,HOBO +U30 +Weather +,2014-01-04 21:40:00,
2014-01-04 16:45:00,22.7,5.1,-100.00,SSE,157,-888.7,-888.7,46,0.00,,,-99.99,1.0,HOBO +U30 +Weather +,2014-01-04 21:45:00,
2014-01-04 16:50:00,22.8,5.1,-100.00,SSE,156,-888.7,-888.7,46,0.00,,,-99.99,1.0,HOBO +U30 +Weather +,2014-01-04 21:50:00,
2014-01-04 16:55:00,22.5,5.4,-100.00,South,183,-888.7,-888.7,47,0.00,,,-99.99,1.0,HOBO +U30 +Weather +,2014-01-04 21:55:00,
2014-01-04 17:00:00,22.4,5.4,-100.00,South,174,-888.7,-888.7,47,0.00,,,-99.99,1.0,HOBO +U30 +Weather +,2014-01-04 22:00:00,
2014-01-04 17:05:00,22.0,5.5,-100.00,South,188,-888.7,-888.7,48,0.00,,,-99.99,1.0,HOBO +U30 +Weather +,2014-01-04 22:05:00,
2014-01-04 17:10:00,21.8,5.6,-100.00,South,177,-888.7,-888.7,49,0.00,,,-99.99,1.0,HOBO +U30 +Weather +,2014-01-04 22:10:00,
2014-01-04 17:15:00,21.7,5.6,-100.00,South,173,-888.7,-888.7,49,0.00,,,-99.99,1.0,HOBO +U30 +Weather +,2014-01-04 22:15:00,
2014-01-04 17:20:00,21.7,5.7,-100.00,South,170,-888.7,-888.7,49,0.00,,,-99.99,1.0,HOBO +U30 +Weather +,2014-01-04 22:20:00,
2014-01-04 17:25:00,21.7,5.7,-100.00,SSE,149,-888.7,-888.7,49,0.00,,,-99.99,1.0,HOBO +U30 +Weather +,2014-01-04 22:25:00,
2014-01-04 17:30:00,21.5,5.7,-100.00,SSE,163,-888.7,-888.7,49,0.00,,,-99.99,1.0,HOBO +U30 +Weather +,2014-01-04 22:30:00,
2014-01-04 17:35:00,21.4,5.7,-100.00,SSE,167,-888.7,-888.7,50,0.00,,,-99.99,1.0,HOBO +U30 +Weather +,2014-01-04 22:35:00,
2014-01-04 17:40:00,21.4,5.7,-100.00,SSE,154,-888.7,-888.7,50,0.00,,,-99.99,1.0,HOBO +U30 +Weather +,2014-01-04 22:40:00,
2014-01-04 17:45:00,21.2,5.5,-100.00,SSE,154,-888.7,-888.7,50,0.00,,,-99.99,1.0,HOBO +U30 +Weather +,2014-01-04 22:45:00,
2014-01-04 17:50:00,21.2,5.6,-100.00,SSE,166,-888.7,-888.7,50,0.00,,,-99.99,1.0,HOBO +U30 +Weather +,2014-01-04 22:50:00,
2014-01-04 17:55:00,21.2,5.5,-100.00,SE,142,-888.7,-888.7,49,0.00,,,-99.99,1.0,HOBO +U30 +Weather +,2014-01-04 22:55:00,
2014-01-04 18:00:00,21.0,5.6,-100.00,SSE,156,-888.7,-888.7,50,0.00,,,-99.99,1.0,HOBO +U30 +Weather +,2014-01-04 23:00:00,
2014-01-04 18:05:00,20.6,5.6,-100.00,SSE,166,-888.7,-888.7,51,0.00,,,-99.99,1.0,HOBO +U30 +Weather +,2014-01-04 23:05:00,
2014-01-04 18:10:00,20.3,5.6,-100.00,South,177,-888.7,-888.7,52,0.00,,,-99.99,1.0,HOBO +U30 +Weather +,2014-01-04 23:10:00,
2014-01-04 18:15:00,20.2,5.5,-100.00,South,175,-888.7,-888.7,52,0.00,,,-99.99,1.0,HOBO +U30 +Weather +,2014-01-04 23:15:00,
2014-01-04 18:20:00,19.9,5.6,-100.00,South,174,-888.7,-888.7,53,0.00,,,-99.99,1.0,HOBO +U30 +Weather +,2014-01-04 23:20:00,
2014-01-04 18:25:00,18.8,5.8,-100.00,South,174,-888.7,-888.7,56,0.00,,,-99.99,1.0,HOBO +U30 +Weather +,2014-01-04 23:25:00,
2014-01-04 18:30:00,18.1,5.8,-100.00,South,174,-888.7,-888.7,57,0.00,,,-99.99,1.0,HOBO +U30 +Weather +,2014-01-04 23:30:00,
2014-01-04 18:35:00,17.4,5.7,-100.00,South,174,-888.7,-888.7,59,0.00,,,-99.99,1.0,HOBO +U30 +Weather +,2014-01-04 23:35:00,
2014-01-04 18:40:00,16.9,5.8,-100.00,South,174,-888.7,-888.7,61,0.00,,,-99.99,1.0,HOBO +U30 +Weather +,2014-01-04 23:40:00,
2014-01-04 18:45:00,15.9,6.0,-100.00,South,174,-888.7,-888.7,64,0.00,,,-99.99,1.0,HOBO +U30 +Weather +,2014-01-04 23:45:00,
2014-01-04 18:50:00,15.9,6.4,-100.00,South,174,-888.7,-888.7,65,0.00,,,-99.99,1.0,HOBO +U30 +Weather +,2014-01-04 23:50:00,
2014-01-04 18:55:00,15.4,6.4,-100.00,South,174,-888.7,-888.7,67,0.00,,,-99.99,1.0,HOBO +U30 +Weather +,2014-01-04 23:55:00,
2014-01-04 19:00:00,15.8,7.0,-100.00,South,174,-888.7,-888.7,67,0.00,,,-99.99,1.0,HOBO +U30 +Weather +,2014-01-05 00:00:00,
2014-01-04 19:05:00,15.9,6.7,-100.00,South,174,-888.7,-888.7,66,0.00,,,-99.99,1.0,HOBO +U30 +Weather +,2014-01-05 00:05:00,
2014-01-04 19:10:00,16.5,6.7,-100.00,South,173,-888.7,-888.7,65,0.00,,,-99.99,1.0,HOBO +U30 +Weather +,2014-01-05 00:10:00,
2014-01-04 19:15:00,15.7,6.9,-100.00,South,173,-888.7,-888.7,67,0.00,,,-99.99,1.0,HOBO +U30 +Weather +,2014-01-05 00:15:00,
2014-01-04 19:20:00,15.0,6.8,-100.00,South,173,-888.7,-888.7,69,0.00,,,-99.99,1.0,HOBO +U30 +Weather +,2014-01-05 00:20:00,
2014-01-04 19:25:00,14.3,6.8,-100.00,South,173,-888.7,-888.7,71,0.00,,,-99.99,1.0,HOBO +U30 +Weather +,2014-01-05 00:25:00,
2014-01-04 19:30:00,14.3,7.1,-100.00,South,173,-888.7,-888.7,72,0.00,,,-99.99,1.0,HOBO +U30 +Weather +,2014-01-05 00:30:00,
2014-01-04 19:35:00,15.0,7.7,-100.00,South,173,-888.7,-888.7,72,0.00,,,-99.99,1.0,HOBO +U30 +Weather +,2014-01-05 00:35:00,
2014-01-04 19:40:00,14.2,6.9,-100.00,South,173,-888.7,-888.7,72,0.00,,,-99.99,1.0,HOBO +U30 +Weather +,2014-01-05 00:40:00,
2014-01-04 19:45:00,13.1,6.4,-100.00,South,175,-888.7,-888.7,74,0.00,,,-99.99,1.0,HOBO +U30 +Weather +,2014-01-05 00:45:00,
2014-01-04 19:50:00,12.1,5.9,-100.00,South,177,-888.7,-888.7,75,0.00,,,-99.99,1.0,HOBO +U30 +Weather +,2014-01-05 00:50:00,
2014-01-04 19:55:00,12.5,6.7,-100.00,South,177,-888.7,-888.7,77,0.00,,,-99.99,1.0,HOBO +U30 +Weather +,2014-01-05 00:55:00,
2014-01-04 20:00:00,12.8,6.7,-100.00,South,177,-888.7,-888.7,76,0.00,,,-99.99,1.0,HOBO +U30 +Weather +,2014-01-05 01:00:00,
2014-01-04 20:05:00,12.8,6.6,-100.00,South,177,-888.7,-888.7,75,0.00,,,-99.99,1.0,HOBO +U30 +Weather +,2014-01-05 01:05:00,
2014-01-04 20:10:00,12.6,7.1,-100.00,South,184,-888.7,-888.7,78,0.00,,,-99.99,1.0,HOBO +U30 +Weather +,2014-01-05 01:10:00,
2014-01-04 20:15:00,12.3,6.8,-100.00,South,191,-888.7,-888.7,78,0.00,,,-99.99,1.0,HOBO +U30 +Weather +,2014-01-05 01:15:00,
2014-01-04 20:20:00,12.3,6.9,-100.00,South,191,-888.7,-888.7,78,0.00,,,-99.99,1.0,HOBO +U30 +Weather +,2014-01-05 01:20:00,
2014-01-04 20:25:00,12.5,7.2,-100.00,South,191,-888.7,-888.7,79,0.00,,,-99.99,1.0,HOBO +U30 +Weather +,2014-01-05 01:25:00,
2014-01-04 20:30:00,12.2,6.7,-100.00,South,191,-888.7,-888.7,78,0.00,,,-99.99,1.0,HOBO +U30 +Weather +,2014-01-05 01:30:00,
2014-01-04 20:35:00,11.4,6.1,-100.00,SSW,192,-888.7,-888.7,78,0.00,,,-99.99,1.0,HOBO +U30 +Weather +,2014-01-05 01:35:00,
2014-01-04 20:40:00,11.1,6.4,-100.00,SSW,192,-888.7,-888.7,80,0.00,,,-99.99,1.0,HOBO +U30 +Weather +,2014-01-05 01:40:00,
2014-01-04 20:45:00,11.2,6.4,-100.00,SSW,208,-888.7,-888.7,80,0.00,,,-99.99,1.0,HOBO +U30 +Weather +,2014-01-05 01:45:00,
2014-01-04 20:50:00,10.5,6.0,-100.00,SW,229,-888.7,-888.7,81,0.00,,,-99.99,1.0,HOBO +U30 +Weather +,2014-01-05 01:50:00,
2014-01-04 20:55:00,10.6,6.6,-100.00,SW,230,-888.7,-888.7,83,0.00,,,-99.99,1.0,HOBO +U30 +Weather +,2014-01-05 01:55:00,
2014-01-04 21:00:00,12.3,7.3,-100.00,SW,229,-888.7,-888.7,80,0.00,,,-99.99,1.0,HOBO +U30 +Weather +,2014-01-05 02:00:00,
2014-01-04 21:05:00,12.4,7.1,-100.00,South,178,-888.7,-888.7,79,0.00,,,-99.99,1.0,HOBO +U30 +Weather +,2014-01-05 02:05:00,
2014-01-04 21:10:00,12.1,6.8,-100.00,SSW,195,-888.7,-888.7,79,0.00,,,-99.99,1.0,HOBO +U30 +Weather +,2014-01-05 02:10:00,
2014-01-04 21:15:00,11.9,6.3,-100.00,SSW,195,-888.7,-888.7,77,0.00,,,-99.99,1.0,HOBO +U30 +Weather +,2014-01-05 02:15:00,
2014-01-04 21:20:00,11.7,6.5,-100.00,SSW,208,-888.7,-888.7,79,0.00,,,-99.99,1.0,HOBO +U30 +Weather +,2014-01-05 02:20:00,
2014-01-04 21:25:00,12.1,7.1,-100.00,SSW,205,-888.7,-888.7,80,0.00,,,-99.99,1.0,HOBO +U30 +Weather +,2014-01-05 02:25:00,
2014-01-04 21:30:00,11.2,6.1,-100.00,South,191,-888.7,-888.7,79,0.00,,,-99.99,1.0,HOBO +U30 +Weather +,2014-01-05 02:30:00,
2014-01-04 21:35:00,10.8,6.2,-100.00,South,191,-888.7,-888.7,81,0.00,,,-99.99,1.0,HOBO +U30 +Weather +,2014-01-05 02:35:00,
2014-01-04 21:40:00,11.1,6.7,-100.00,South,191,-888.7,-888.7,82,0.00,,,-99.99,1.0,HOBO +U30 +Weather +,2014-01-05 02:40:00,
2014-01-04 21:45:00,11.0,6.5,-100.00,SSE,167,-888.7,-888.7,81,0.00,,,-99.99,1.0,HOBO +U30 +Weather +,2014-01-05 02:45:00,
2014-01-04 21:50:00,10.9,6.7,-100.00,SSE,152,-888.7,-888.7,82,0.00,,,-99.99,1.0,HOBO +U30 +Weather +,2014-01-05 02:50:00,
2014-01-04 21:55:00,10.8,6.7,-100.00,ESE,121,-888.7,-888.7,83,0.00,,,-99.99,1.0,HOBO +U30 +Weather +,2014-01-05 02:55:00,
2014-01-04 22:00:00,10.0,5.8,-100.00,SE,139,-888.7,-888.7,82,0.00,,,-99.99,1.0,HOBO +U30 +Weather +,2014-01-05 03:00:00,
2014-01-04 22:05:00,9.9,6.1,-100.00,South,171,-888.7,-888.7,84,0.00,,,-99.99,1.0,HOBO +U30 +Weather +,2014-01-05 03:05:00,
2014-01-04 22:10:00,10.0,6.2,-100.00,South,171,-888.7,-888.7,84,0.00,,,-99.99,1.0,HOBO +U30 +Weather +,2014-01-05 03:10:00,
2014-01-04 22:15:00,9.9,6.0,-100.00,South,171,-888.7,-888.7,83,0.00,,,-99.99,1.0,HOBO +U30 +Weather +,2014-01-05 03:15:00,
2014-01-04 22:20:00,9.5,5.7,-100.00,South,171,-888.7,-888.7,84,0.00,,,-99.99,1.0,HOBO +U30 +Weather +,2014-01-05 03:20:00,
2014-01-04 22:25:00,9.6,6.0,-100.00,South,171,-888.7,-888.7,85,0.00,,,-99.99,1.0,HOBO +U30 +Weather +,2014-01-05 03:25:00,
2014-01-04 22:30:00,9.2,5.5,-100.00,South,171,-888.7,-888.7,84,0.00,,,-99.99,1.0,HOBO +U30 +Weather +,2014-01-05 03:30:00,
2014-01-04 22:35:00,9.3,5.8,-100.00,South,173,-888.7,-888.7,85,0.00,,,-99.99,1.0,HOBO +U30 +Weather +,2014-01-05 03:35:00,
2014-01-04 22:40:00,9.2,5.8,-100.00,South,173,-888.7,-888.7,85,0.00,,,-99.99,1.0,HOBO +U30 +Weather +,2014-01-05 03:40:00,
2014-01-04 22:45:00,9.2,5.8,-100.00,South,173,-888.7,-888.7,85,0.00,,,-99.99,1.0,HOBO +U30 +Weather +,2014-01-05 03:45:00,
2014-01-04 22:50:00,9.6,6.3,-100.00,South,173,-888.7,-888.7,86,0.00,,,-99.99,1.0,HOBO +U30 +Weather +,2014-01-05 03:50:00,
2014-01-04 22:55:00,9.0,5.5,-100.00,South,173,-888.7,-888.7,85,0.00,,,-99.99,1.0,HOBO +U30 +Weather +,2014-01-05 03:55:00,
2014-01-04 23:00:00,9.1,5.8,-100.00,South,173,-888.7,-888.7,86,0.00,,,-99.99,1.0,HOBO +U30 +Weather +,2014-01-05 04:00:00,
2014-01-04 23:05:00,9.2,5.8,-100.00,South,173,-888.7,-888.7,85,0.00,,,-99.99,1.0,HOBO +U30 +Weather +,2014-01-05 04:05:00,
2014-01-04 23:10:00,9.6,6.1,-100.00,South,173,-888.7,-888.7,85,0.00,,,-99.99,1.0,HOBO +U30 +Weather +,2014-01-05 04:10:00,
2014-01-04 23:15:00,9.3,5.7,-100.00,South,173,-888.7,-888.7,85,0.00,,,-99.99,1.0,HOBO +U30 +Weather +,2014-01-05 04:15:00,
2014-01-04 23:20:00,9.2,5.6,-100.00,South,173,-888.7,-888.7,85,0.00,,,-99.99,1.0,HOBO +U30 +Weather +,2014-01-05 04:20:00,
2014-01-04 23:25:00,9.2,5.9,-100.00,South,173,-888.7,-888.7,85,0.00,,,-99.99,1.0,HOBO +U30 +Weather +,2014-01-05 04:25:00,
2014-01-04 23:30:00,9.0,5.6,-100.00,South,173,-888.7,-888.7,86,0.00,,,-99.99,1.0,HOBO +U30 +Weather +,2014-01-05 04:30:00,
2014-01-04 23:35:00,8.9,5.5,-100.00,South,173,-888.7,-888.7,85,0.00,,,-99.99,1.0,HOBO +U30 +Weather +,2014-01-05 04:35:00,
2014-01-04 23:40:00,8.5,5.2,-100.00,South,175,-888.7,-888.7,86,0.00,,,-99.99,1.0,HOBO +U30 +Weather +,2014-01-05 04:40:00,
2014-01-04 23:45:00,8.2,5.0,-100.00,South,177,-888.7,-888.7,86,0.00,,,-99.99,1.0,HOBO +U30 +Weather +,2014-01-05 04:45:00,
2014-01-04 23:50:00,8.1,5.1,-100.00,South,177,-888.7,-888.7,87,0.00,,,-99.99,1.0,HOBO +U30 +Weather +,2014-01-05 04:50:00,
2014-01-04 23:55:00,8.7,5.8,-100.00,South,177,-888.7,-888.7,87,0.00,,,-99.99,1.0,HOBO +U30 +Weather +,2014-01-05 04:55:00,